(94499) = 2001 UB51

Discovered at Socorro on 2001-10-17 by LINEAR.

Orbit

Orbit type: Main Belt

Note: WebGL enabled browser required.

epoch2024-03-31.0
epoch JD2460400.5
perihelion date2024-11-18.61236
perihelion JD2460633.11236
argument of perihelion (°)231.07820
ascending node (°)147.57448
inclination (°)7.10521
eccentricity0.2110456
perihelion distance (AU)1.7558516
Tisserand w.r.t. Jupiter3.6
ΔV w.r.t. Earth (km/sec)8.4
semimajor axis (AU)2.2255427
mean anomaly (°)290.94697
mean daily motion (°/day)0.29685880
aphelion distance (AU)2.695
period (years)3.32
P-vector [x]0.94427116
P-vector [y]0.32709115
P-vector [z]0.03692355
Q-vector [x]-0.32241761
Q-vector [y]0.89646617
Q-vector [z]0.30396595
absolute magnitude17.03
phase slope0.15
uncertainty0
referenceMPEC 2024-C115
observations used555
oppositions15
arc length (days)9927
first opposition used1996
last opposition used2023
residual rms (arc-secs)0.67
perturbers coarse indicatorM-v
perturbers precise indicator003Ek
first observation date used1996-03-17.0
last observation date used2023-05-22.0
computer nameMPCLINUX
JD of orbit computation2456937.348876
perihelion JD uncertainty (days)3.3346E-05
argument of perihelion uncertainty (°)2.8111E-05
ascending node uncertainty (°)2.5790E-05
inclination uncertainty (°)4.6114E-06
eccentricity uncertainty 3.8953E-08
perihelion distance uncertainty (AU)8.9255E-08
Minimum Orbit Intersection Distances (in AU)
for orbit epoch: 2460200.5, reference: E2024-CB5
Mercury1.40998
Venus1.03193
Earth0.76646
Mars0.36436
Jupiter2.77172
Saturn6.79927
Uranus15.8114
Neptune27.9898

Observations

568 total observations over interval: 1996 03 17.12791 – 2023 05 22.255472
These data are available for download (format description).

Date (UT) J2000 RA J2000 Dec Magn Location Ref
1996 03 17.12791 10 42 08.41 +11 49 31.9 20.8 V 691 – Steward Observatory, Kitt Peak-Spacewatch MPS 110717
1996 03 17.14983 10 42 07.39 +11 49 42.3   691 – Steward Observatory, Kitt Peak-Spacewatch MPS 110717
1996 03 17.17148 10 42 06.11 +11 49 50.8   691 – Steward Observatory, Kitt Peak-Spacewatch MPS 110717
2001 09 17.41424 04 11 34.92 +11 01 11.5 19.9   704 – Lincoln Laboratory ETS, New Mexico MPS 44454
2001 09 17.42843 04 11 35.86 +11 01 08.7 20.2   704 – Lincoln Laboratory ETS, New Mexico MPS 44454
2001 09 17.44265 04 11 36.75 +11 01 05.8 20.3   704 – Lincoln Laboratory ETS, New Mexico MPS 44454
2001 09 17.45684 04 11 37.73 +11 01 02.4 20.1   704 – Lincoln Laboratory ETS, New Mexico MPS 44454
2001 09 26.39956 04 20 33.69 +10 22 58.2 19.0   704 – Lincoln Laboratory ETS, New Mexico MPS 55072
2001 09 26.41406 04 20 34.31 +10 22 53.6 19.3   704 – Lincoln Laboratory ETS, New Mexico MPS 55072
2001 09 26.42862 04 20 35.05 +10 22 50.0 19.6   704 – Lincoln Laboratory ETS, New Mexico MPS 55072
2001 09 26.44316 04 20 35.77 +10 22 45.2 19.7   704 – Lincoln Laboratory ETS, New Mexico MPS 55072
2001 09 26.45765 04 20 36.49 +10 22 41.3 19.9   704 – Lincoln Laboratory ETS, New Mexico MPS 55072
2001 10 17.32973 04 29 45.60 +08 21 56.4 19.6   704 – Lincoln Laboratory ETS, New Mexico MPS 41084
2001 10 17.34573 04 29 45.64 +08 21 51.1 20.1   704 – Lincoln Laboratory ETS, New Mexico MPS 41084
2001 10 17.36162 04 29 45.64 +08 21 43.8 19.7   704 – Lincoln Laboratory ETS, New Mexico MPS 41084
2001 10 17.37751 04 29 45.53 +08 21 38.7 19.7   704 – Lincoln Laboratory ETS, New Mexico MPS 41084
2001 10 17.39344 04 29 45.48 +08 21 32.0 19.8   704 – Lincoln Laboratory ETS, New Mexico MPS 41084
2001 10 20.33697 04 29 34.79 +08 02 42.3 19.0   704 – Lincoln Laboratory ETS, New Mexico MPS 41084
2001 10 20.35351 04 29 34.60 +08 02 35.2 19.7   704 – Lincoln Laboratory ETS, New Mexico MPS 41084
2001 10 20.38636 04 29 34.27 +08 02 23.9 19.5   704 – Lincoln Laboratory ETS, New Mexico MPS 41084
2001 10 20.40329 04 29 34.06 +08 02 16.5 19.6   704 – Lincoln Laboratory ETS, New Mexico MPS 41084
2001 10 23.44175 04 28 59.74 +07 42 59.4 20.2   608 – Haleakala-AMOS MPS 41084
2001 10 23.45202 04 28 59.55 +07 42 55.2 19.9   608 – Haleakala-AMOS MPS 41084
2001 10 23.46232 04 28 59.35 +07 42 51.1 19.9   608 – Haleakala-AMOS MPS 41084
2001 11 13.48876 04 15 44.32 +05 50 19.5 19.3   608 – Haleakala-AMOS MPS 44454
2001 11 13.49907 04 15 43.69 +05 50 17.5 19.2   608 – Haleakala-AMOS MPS 44454
2001 11 13.50973 04 15 43.03 +05 50 15.2 19.2   608 – Haleakala-AMOS MPS 44454
2001 11 15.29808 04 14 02.42 +05 43 50.9 18.8   704 – Lincoln Laboratory ETS, New Mexico MPS 44454
2001 11 15.31280 04 14 01.54 +05 43 48.1 19.3   704 – Lincoln Laboratory ETS, New Mexico MPS 44454
2001 11 15.32753 04 14 00.66 +05 43 45.5 19.0   704 – Lincoln Laboratory ETS, New Mexico MPS 44454
2001 11 15.34224 04 13 59.71 +05 43 42.8 19.8   704 – Lincoln Laboratory ETS, New Mexico MPS 44454
2001 11 15.35699 04 13 58.84 +05 43 38.8 18.9   704 – Lincoln Laboratory ETS, New Mexico MPS 44454
2001 11 16.40456 04 12 58.42 +05 40 16.3 18.4   644 – Palomar Mountain/NEAT MPS 42079
2001 11 16.42650 04 12 57.07 +05 40 12.0 18.8   644 – Palomar Mountain/NEAT MPS 42079
2001 11 16.44839 04 12 55.72 +05 40 07.9 18.5   644 – Palomar Mountain/NEAT MPS 42079
2001 11 18.29861 04 11 07.61 +05 34 47.4 19.3   704 – Lincoln Laboratory ETS, New Mexico MPS 42079
2001 11 18.31363 04 11 06.67 +05 34 45.1 19.5   704 – Lincoln Laboratory ETS, New Mexico MPS 42079
2001 11 18.32862 04 11 05.71 +05 34 43.5 19.5   704 – Lincoln Laboratory ETS, New Mexico MPS 42079
2001 11 18.34363 04 11 04.75 +05 34 40.8 19.2   704 – Lincoln Laboratory ETS, New Mexico MPS 42079
2001 11 18.35863 04 11 03.88 +05 34 38.1 19.3   704 – Lincoln Laboratory ETS, New Mexico MPS 42079
2001 11 19.33384 04 10 06.05 +05 32 10.5 18.4 R 699 – Lowell Observatory-LONEOS MPS 44454
2001 11 19.35026 04 10 05.06 +05 32 08.3   699 – Lowell Observatory-LONEOS MPS 44454
2001 11 19.36670 04 10 03.98 +05 32 05.2   699 – Lowell Observatory-LONEOS MPS 44454
2001 11 19.38317 04 10 02.92 +05 32 03.0   699 – Lowell Observatory-LONEOS MPS 44454
2001 11 20.29863 04 09 08.49 +05 29 57.9 18.3 R 699 – Lowell Observatory-LONEOS MPS 44454
2001 11 20.31512 04 09 07.43 +05 29 55.6   699 – Lowell Observatory-LONEOS MPS 44454
2001 11 20.33167 04 09 06.34 +05 29 53.6   699 – Lowell Observatory-LONEOS MPS 44454
2001 11 20.34821 04 09 05.30 +05 29 51.3   699 – Lowell Observatory-LONEOS MPS 44454
2001 12 07.22330 03 53 11.27 +05 31 19.0 18.4   704 – Lincoln Laboratory ETS, New Mexico MPS 44454
2001 12 07.23844 03 53 10.50 +05 31 21.1 18.9   704 – Lincoln Laboratory ETS, New Mexico MPS 44454
2001 12 07.25426 03 53 09.71 +05 31 23.9 19.5   704 – Lincoln Laboratory ETS, New Mexico MPS 44454
2001 12 07.26962 03 53 08.92 +05 31 26.0 19.6   704 – Lincoln Laboratory ETS, New Mexico MPS 44454
2001 12 08.22576 03 52 23.54 +05 33 48.0 18.5 R 699 – Lowell Observatory-LONEOS MPS 44454
2001 12 08.25074 03 52 22.32 +05 33 51.9   699 – Lowell Observatory-LONEOS MPS 44454
2001 12 08.27575 03 52 21.03 +05 33 56.8   699 – Lowell Observatory-LONEOS MPS 44454
2001 12 08.30080 03 52 19.76 +05 34 00.1   699 – Lowell Observatory-LONEOS MPS 44454
2001 12 15.22548 03 47 36.65 +05 58 04.3 19.1   704 – Lincoln Laboratory ETS, New Mexico MPS 44454
2001 12 15.24083 03 47 36.18 +05 58 06.7 18.7   704 – Lincoln Laboratory ETS, New Mexico MPS 44454
2001 12 15.25589 03 47 35.61 +05 58 11.4 18.7   704 – Lincoln Laboratory ETS, New Mexico MPS 44454
2001 12 15.27194 03 47 35.02 +05 58 15.7 19.4   704 – Lincoln Laboratory ETS, New Mexico MPS 44454
2001 12 19.21880 03 45 35.18 +06 16 57.8 18.4   704 – Lincoln Laboratory ETS, New Mexico MPS 44454
2001 12 19.23379 03 45 34.72 +06 17 02.0 18.9   704 – Lincoln Laboratory ETS, New Mexico MPS 44454
2001 12 19.24876 03 45 34.31 +06 17 07.3 19.0   704 – Lincoln Laboratory ETS, New Mexico MPS 44454
2001 12 19.26389 03 45 33.88 +06 17 11.8 19.3   704 – Lincoln Laboratory ETS, New Mexico MPS 44454
2001 12 19.28001 03 45 33.41 +06 17 16.9 19.0   704 – Lincoln Laboratory ETS, New Mexico MPS 44454
2002 01 05.20612 03 43 21.79 +08 09 07.3 19.2 R 699 – Lowell Observatory-LONEOS MPS 46645
2002 01 05.22962 03 43 21.98 +08 09 18.5   699 – Lowell Observatory-LONEOS MPS 46645
2002 01 05.25320 03 43 22.22 +08 09 29.9   699 – Lowell Observatory-LONEOS MPS 46645
2002 01 05.30027 03 43 22.59 +08 09 50.4   699 – Lowell Observatory-LONEOS MPS 46645
2003 04 09.31603 13 06 06.10 +02 06 36.1 21.4 V 691 – Steward Observatory, Kitt Peak-Spacewatch MPS 110288
2003 04 09.34231 13 06 04.54 +02 06 47.7 21.4 V 691 – Steward Observatory, Kitt Peak-Spacewatch MPS 110288
2003 04 09.36994 13 06 02.92 +02 06 59.8 21.3 V 691 – Steward Observatory, Kitt Peak-Spacewatch MPS 110288
2004 07 10.42951 22 05 24.60 -07 38 39.4 19.2   644 – Palomar Mountain/NEAT MPS 110288
2004 07 10.44154 22 05 24.63 -07 38 41.3 19.4   644 – Palomar Mountain/NEAT MPS 110288
2004 07 10.45451 22 05 24.66 -07 38 43.7 19.1   644 – Palomar Mountain/NEAT MPS 110288
2004 08 09.28661 21 54 58.63 -10 59 03.1 18.1 R 699 – Lowell Observatory-LONEOS MPS 111051
2004 08 09.29879 21 54 57.99 -10 59 10.3   699 – Lowell Observatory-LONEOS MPS 111051
2004 08 09.31096 21 54 57.45 -10 59 18.0   699 – Lowell Observatory-LONEOS MPS 111051
2004 08 09.32311 21 54 56.88 -10 59 25.7   699 – Lowell Observatory-LONEOS MPS 111051
2004 08 10.22409 21 54 17.50 -11 08 38.0 18.3   704 – Lincoln Laboratory ETS, New Mexico MPS 111051
2004 08 10.23425 21 54 17.02 -11 08 44.5 18.7   704 – Lincoln Laboratory ETS, New Mexico MPS 111051
2004 08 10.24441 21 54 16.60 -11 08 50.9 18.7   704 – Lincoln Laboratory ETS, New Mexico MPS 111051
2004 08 10.25463 21 54 16.07 -11 08 56.7 18.7   704 – Lincoln Laboratory ETS, New Mexico MPS 111051
2004 08 10.26475 21 54 15.56 -11 09 02.7 18.7   704 – Lincoln Laboratory ETS, New Mexico MPS 111051
2004 09 07.18275 21 33 11.88 -16 05 14.8 18.5   704 – Lincoln Laboratory ETS, New Mexico MPS 112627
2004 09 07.19383 21 33 11.39 -16 05 20.3 18.6   704 – Lincoln Laboratory ETS, New Mexico MPS 112627
2004 09 07.20485 21 33 10.95 -16 05 26.7 19.0   704 – Lincoln Laboratory ETS, New Mexico MPS 112627
